Home   Weather   New Westminster   Past weeks

Flag for Canada Past Weather in New Westminster, British Columbia, Canada — Yesterday and Last 2 Weeks

Now
30 °F

Chilly.


Feels Like: 27 °F
Forecast: 31 / 38 °F
Wind: 3 mph from Southeast

Location: P. Meadows Coastal Station

Current Time: Dec 10, 2016 at 12:59:03 am

Latest Report: Dec 10, 2016 at 12:00 am


Visibility: N/A

Pressure: 29.82 "Hg

Humidity: 94%

Dew Point: 29 °F

Location of New WestminsterLocation

Past Weather in New Westminster — Graph

°F

New Westminster Temperature Yesterday

Maximum temperature yesterday: 36 °F (at 12:00 am)
Minimum temperature yesterday: 27 °F (at 9:00 am)
Average temperature yesterday: 30 °F

High & Low Weather Summary for the Past Weeks

 TemperatureHumidityPressure
High48 °F (Nov 25, 2:00 pm)100% (Nov 27, 1:00 pm)30.51 "Hg (Nov 27, 1:00 pm)
Low17 °F (Dec 8, 5:00 am)30% (Dec 8, 8:00 pm)29.42 "Hg (Nov 27, 9:00 pm)
Average38 °F84%30.02 "Hg
* Reported Nov 24 11:00 pm — Dec 9 11:00 pm, New Westminster, Weather by CustomWeather, © 2016

Note: Actual official high and low records may vary slightly from our data, if they occured in-between our weather recording intervals... More about our weather records

Advertising

New Westminster Weather History for the Previous 24 Hours

Scroll right to see more
 ConditionsComfort  
Time TempWeatherWind HumidityBarometerVisibility
11:00 pm
Fri, Dec 9
31 °FChilly.3 mph93%29.81 "HgN/A
10:00 pm30 °FChilly.6 mph95%29.80 "HgN/A
9:00 pm29 °FChilly.6 mph94%29.81 "HgN/A
8:00 pm29 °FChilly.3 mph94%29.83 "HgN/A
7:00 pm29 °FChilly.5 mph92%29.84 "HgN/A
6:00 pm29 °FChilly.5 mph93%29.88 "HgN/A
5:00 pm29 °FChilly.3 mph93%29.90 "HgN/A
4:00 pm29 °FChilly.5 mph92%29.93 "HgN/A
3:00 pm29 °FChilly.5 mph90%29.94 "HgN/A
2:00 pm29 °FChilly.7 mph90%29.95 "HgN/A
1:00 pm29 °FChilly.5 mph88%29.96 "HgN/A
12:00 pm29 °FChilly.6 mph86%29.98 "HgN/A
11:00 am29 °FChilly.6 mph87%29.99 "HgN/A
10:00 am28 °FChilly.7 mph89%30.01 "HgN/A
9:00 am27 °FChilly.7 mph91%30.00 "HgN/A
8:00 am27 °FChilly.7 mph90%30.01 "HgN/A
7:00 am27 °FChilly.8 mph90%29.99 "HgN/A
6:00 am28 °FChilly.7 mph83%30.00 "HgN/A
5:00 am28 °FChilly.10 mph80%30.01 "HgN/A
4:00 am31 °FChilly.8 mph60%30.02 "HgN/A
3:00 am31 °FChilly.12 mph54%30.01 "HgN/A
2:00 am31 °FChilly.9 mph43%30.01 "HgN/A
1:00 am34 °FChilly.13 mph36%30.00 "HgN/A
12:00 am36 °FChilly.12 mph31%29.99 "HgN/A
Weather by CustomWeather, © 2016

See weather overviewHow to use our weather pages